Meteo Giornale » Osservazioni meteo Olanda » J6-A Sea
ore: 01:55 - Osservazioni Meteo J6-A Sea
Lat. 53° 49' N Lon. 2° 57' E Alt. 50 metri s.l.m.
17 °C
Sereno
Temp. 24 Ore
16 °C
19 °C
Ovest/Nord-Ovest
42.6 Km/h
Dew point 14 °C
Umidità 82 %
Visibilità 10 Km
Il sole sorge alle ore 06:57
Il sole tramonta alle ore 20:39
| Data e Ora | Cielo e Fenomeni | T °C | DP °C | Um. % | Pres. hPa | Vis. km | Vento km/h | |
|---|---|---|---|---|---|---|---|---|
| Oggi h: 01:55 | Sereno | 17 | 14 | 82 | 1014 | 10 | O/NO 42.6 | |
| Oggi h: 01:25 | Poco Nuvoloso | 18 | 15 | 82 | 1014 | 10 | O/NO 35.2 | |
| Oggi h: 00:55 | Poco Nuvoloso | 18 | 15 | 82 | 1014 | 10 | O 38.8 | |
| Oggi h: 00:25 | Poco Nuvoloso | 18 | 15 | 82 | 1013 | 10 | O/NO 42.6 | |
| Ieri h: 23:55 | Pioggia | 18 | 15 | 82 | 1013 | 10 | O/NO 38.8 | |
| Ieri h: 23:25 | Sereno | 18 | 15 | 82 | 1013 | 10 | O 38.8 | |
| Ieri h: 22:55 | Sereno | 18 | 15 | 82 | 1013 | 10 | O/SO 40.7 | |
| Ieri h: 22:25 | Sereno | 18 | 15 | 82 | 1013 | 10 | O/SO 35.2 | |
| Ieri h: 21:55 | Sereno | 18 | 15 | 82 | 1012 | 10 | O/SO 29.6 | |
| Ieri h: 21:25 | Sereno | 18 | 15 | 82 | 1012 | 10 | O 29.6 | |
| Ieri h: 20:55 | Sereno | 18 | 15 | 82 | 1012 | 10 | O 31.5 | |
| Ieri h: 20:25 | Sereno | 17 | 15 | 88 | 1011 | 10 | O 33.3 | |
| Ieri h: 19:55 | Poco Nuvoloso | 17 | 14 | 82 | 1011 | 10 | O 37 | |
| Ieri h: 19:25 | Poco Nuvoloso | 18 | 15 | 82 | 1010 | 10 | O 38.8 | |
| Ieri h: 18:55 | Poco Nuvoloso | 18 | 15 | 82 | 1010 | 10 | O/NO 40.7 | |
| Ieri h: 18:25 | Pioggia | 18 | 14 | 77 | 1010 | 10 | O/NO 38.8 | |
| Ieri h: 17:55 | Pioggia | 18 | 15 | 82 | 1009 | 10 | O/NO 42.6 | |
| Ieri h: 17:25 | Nuvoloso | 18 | 15 | 82 | 1009 | 10 | O/NO 40.7 | |
| Ieri h: 16:55 | Pioggia | 18 | 15 | 82 | 1008 | 10 | O/NO 44.4 | |
| Ieri h: 16:25 | Pioggia | 17 | 15 | 88 | 1008 | 10 | O 38.8 | |
| Ieri h: 15:55 | Molto Nuvoloso | 18 | 15 | 82 | 1008 | 10 | O 38.8 | |
| Ieri h: 15:25 | Molto Nuvoloso | 17 | 14 | 82 | 1007 | 10 | O/NO 33.3 | |
| Ieri h: 14:55 | Molto Nuvoloso | 17 | 14 | 82 | 1007 | 10 | O/NO 35.2 | |
| Ieri h: 14:25 | Nuvoloso | 17 | 14 | 82 | 1006 | 10 | O/NO 31.5 | |
| Ieri h: 13:55 | Poco Nuvoloso | 17 | 14 | 82 | 1006 | 10 | O/NO 35.2 | |
| Ieri h: 13:25 | Poco Nuvoloso | 17 | 15 | 88 | 1005 | 10 | O/NO 24 | |
| Ieri h: 12:55 | Poco Nuvoloso | 17 | 14 | 82 | 1005 | 10 | O 25.9 | |
| Ieri h: 12:25 | Pioggia | 17 | 14 | 82 | 1004 | 10 | O/NO 24 | |
| Ieri h: 11:55 | Pioggia | 17 | 14 | 82 | 1004 | 10 | O/NO 27.8 | |
| Ieri h: 11:25 | Nuvoloso | 17 | 14 | 82 | 1004 | 10 | O 31.5 | |
| Ieri h: 10:55 | Pioggia | 17 | 15 | 88 | 1004 | 10 | O/SO 24 | |
| Ieri h: 10:25 | Pioggia | 17 | 15 | 88 | 1003 | 10 | O 27.8 | |
| Ieri h: 09:55 | Pioggia | 16 | 15 | 93 | 1003 | 10 | O 29.6 | |
| Ieri h: 09:25 | Pioggia | 17 | 15 | 88 | 1003 | 10 | O/SO 35.2 | |
| Ieri h: 08:55 | Pioggia | 17 | 15 | 88 | 1003 | 10 | SO 31.5 | |
| Ieri h: 08:25 | Pioggia | 17 | 16 | 93 | 1003 | 8 | SO 31.5 | |
| Ieri h: 07:55 | Pioggia | 18 | 15 | 82 | 1003 | 10 | SO 31.5 | |
| Ieri h: 07:25 | Pioggia | 18 | 15 | 82 | 1003 | 10 | SO 27.8 | |
| Ieri h: 06:55 | Nuvoloso | 18 | 15 | 82 | 1002 | 10 | SO 31.5 | |
| Ieri h: 06:25 | Nuvoloso | 18 | 15 | 82 | 1003 | 10 | S/SO 31.5 | |
| Ieri h: 05:55 | Molto Nuvoloso | 18 | 14 | 77 | 1003 | 10 | S 25.9 | |
| Ieri h: 05:25 | Temporale | 19 | 15 | 77 | 1004 | 10 | S/SO 40.7 | |
| Ieri h: 04:55 | Sereno | 19 | 16 | 82 | 1003 | 10 | S/SO 33.3 | |
| Ieri h: 04:25 | Sereno | 19 | 16 | 82 | 1004 | 10 | S/SO 35.2 | |
| Ieri h: 03:55 | Sereno | 19 | 16 | 82 | 1004 | 10 | S/SO 37 | |
| Ieri h: 03:25 | Sereno | 19 | 16 | 82 | 1004 | 10 | S/SO 38.8 | |
| Ieri h: 02:55 | Pioggia | 19 | 16 | 82 | 1004 | 10 | S/SO 40.7 | |



